Change the Weather History Date:

Tuesday, January 3, 2012

  Actual Average Record
Temperature  
Mean Temperature 18 °F -  
Max Temperature 21 °F 30 °F 55 °F (2004)
Min Temperature 16 °F 18 °F -5 °F (2014)
Degree Days  
Heating Degree Days 48    
Moisture  
Dew Point 8 °F    
Average Humidity 64    
Maximum Humidity 73    
Minimum Humidity 54    
Precipitation  
Precipitation 0.00 in - - ()
Snow  
Snow 0.00 in - - ()
Snow Depth 1.00 in    
Sea Level Pressure  
Sea Level Pressure 30.21 in    
Wind  
Wind Speed 14 mph (NW)    
Max Wind Speed 20 mph    
Max Gust Speed 30 mph    
Visibility 9 miles    
Events Snow    
Averages and records for this station are not official NWS values.
T = Trace of Precipitation, MM = Missing Value Source: NWS Daily Summary

Daily Weather History Graph

Daily Weather History Graph

Search for Another Location

Airport or City:

Trip Planner

Search our weather history database for the weather conditions in past years. The results will help you decide how hot, cold, wet, or windy it might be!

Date:

Astronomy

Jan. 03, 2012 Rise Set
Actual Time 8:04 AM EST 5:12 PM EST
Civil Twilight 7:32 AM EST 5:44 PM EST
Nautical Twilight 6:56 AM EST 6:19 PM EST
Astronomical Twilight 6:22 AM EST 6:53 PM EST
Moon 1:01 PM EST (1/3) 2:51 AM EST (1/3)
Length of Visible Light 10h 12m
Length of Day
9h 08m
Waxing Gibbous, 72% of the Moon is Illuminated
Jan 3
Waxing Gibbous
Jan 9
Full
Jan 16
Last Quarter
Jan 23
New
Jan 30
First Quarter

Hourly Weather History & Observations

Time (EST) Temp. Windchill Dew Point Humidity Pressure Visibility Wind Dir Wind Speed Gust Speed Precip Events Conditions
12:46 AM 17.6 °F 2.7 °F 6.8 °F 63% 30.11 in 10.0 mi NW 16.1 mph 28.8 mph N/A   Partly Cloudy
12:53 AM 18.0 °F 2.2 °F 5.0 °F 57% 30.16 in 10.0 mi NW 18.4 mph 27.6 mph N/A   Partly Cloudy
1:05 AM 17.6 °F 1.3 °F 5.0 °F 58% 30.11 in 10.0 mi NNW 19.6 mph 29.9 mph N/A   Partly Cloudy
1:53 AM 17.1 °F 1.0 °F 3.9 °F 56% 30.17 in 10.0 mi NW 18.4 mph 29.9 mph N/A   Partly Cloudy
2:53 AM 16.0 °F -0.9 °F 3.9 °F 59% 30.19 in 10.0 mi NW 19.6 mph 23.0 mph N/A   Clear
3:53 AM 16.0 °F 1.1 °F 5.0 °F 62% 30.19 in 10.0 mi NW 15.0 mph 24.2 mph N/A   Overcast
4:35 AM 17.6 °F 4.3 °F 8.6 °F 68% 30.14 in 2.5 mi NW 12.7 mph - 0.00 in Snow Light Snow
4:42 AM 17.6 °F 7.3 °F 10.4 °F 73% 30.14 in 3.0 mi NW 8.1 mph - 0.00 in Snow Light Snow
4:53 AM 17.1 °F 4.3 °F 9.0 °F 71% 30.19 in 9.0 mi NW 11.5 mph 21.9 mph 0.00 in   Overcast
5:53 AM 18.0 °F 2.2 °F 7.0 °F 62% 30.19 in 10.0 mi NW 18.4 mph 25.3 mph 0.00 in   Overcast
6:14 AM 17.6 °F 2.2 °F 8.6 °F 68% 30.14 in 9.0 mi WNW 17.3 mph 27.6 mph 0.00 in Snow Light Snow
6:53 AM 17.1 °F 2.0 °F 8.1 °F 68% 30.20 in 9.0 mi NW 16.1 mph 23.0 mph 0.00 in Snow Light Snow
7:53 AM 17.1 °F 3.6 °F 7.0 °F 65% 30.21 in 9.0 mi WNW 12.7 mph 24.2 mph 0.00 in Snow Light Snow
8:53 AM 17.1 °F 0.6 °F 7.0 °F 65% 30.23 in 10.0 mi WNW 19.6 mph 28.8 mph 0.00 in   Mostly Cloudy
9:53 AM 18.0 °F 1.7 °F 8.1 °F 65% 30.25 in 7.0 mi NW 19.6 mph 29.9 mph 0.00 in Snow Light Snow
10:28 AM 17.6 °F 2.7 °F 8.6 °F 68% 30.21 in 2.5 mi NW 16.1 mph 25.3 mph 0.00 in Snow Light Snow
10:31 AM 17.6 °F 3.2 °F 10.4 °F 73% 30.22 in 1.2 mi NW 15.0 mph 25.3 mph 0.00 in Snow Light Snow
10:42 AM 17.6 °F 3.2 °F 10.4 °F 73% 30.22 in 3.0 mi NNW 15.0 mph - 0.00 in Snow Light Snow
10:53 AM 18.0 °F 3.1 °F 9.0 °F 68% 30.27 in 7.0 mi NNW 16.1 mph 21.9 mph 0.00 in Snow Blowing Snow
11:04 AM 19.4 °F 5.0 °F 6.8 °F 58% 30.22 in 10.0 mi NNW 16.1 mph 27.6 mph N/A   Mostly Cloudy
11:53 AM 18.0 °F 4.2 °F 8.1 °F 65% 30.29 in 9.0 mi North 13.8 mph - 0.00 in Snow Light Snow
12:02 PM 17.6 °F 3.7 °F 8.6 °F 68% 30.23 in 9.0 mi NNW 13.8 mph - 0.00 in Snow Light Snow
12:41 PM 19.4 °F 7.9 °F 6.8 °F 58% 30.22 in 10.0 mi NW 10.4 mph 19.6 mph 0.00 in   Mostly Cloudy
12:53 PM 19.0 °F 4.0 °F 5.0 °F 54% 30.27 in 10.0 mi NNW 17.3 mph 24.2 mph 0.00 in   Mostly Cloudy
1:53 PM 19.0 °F 5.6 °F 6.1 °F 57% 30.26 in 10.0 mi North 13.8 mph 19.6 mph N/A   Mostly Cloudy
2:53 PM 19.0 °F 10.0 °F 6.1 °F 57% 30.26 in 10.0 mi North 6.9 mph - N/A   Scattered Clouds
3:53 PM 19.0 °F 10.0 °F 6.1 °F 57% 30.27 in 10.0 mi North 6.9 mph - N/A   Scattered Clouds
4:53 PM 18.0 °F 9.8 °F 7.0 °F 62% 30.27 in 10.0 mi WNW 5.8 mph - N/A   Scattered Clouds
5:53 PM 18.0 °F - 7.0 °F 62% 30.27 in 10.0 mi Calm Calm - N/A   Mostly Cloudy
6:53 PM 19.0 °F 13.9 °F 9.0 °F 65% 30.26 in 10.0 mi South 3.5 mph - N/A   Scattered Clouds
7:53 PM 19.0 °F 13.9 °F 10.0 °F 68% 30.24 in 10.0 mi South 3.5 mph - N/A   Scattered Clouds
8:53 PM 19.9 °F 12.1 °F 10.0 °F 65% 30.19 in 10.0 mi South 5.8 mph - N/A   Mostly Cloudy
9:53 PM 19.9 °F 10.1 °F 9.0 °F 62% 30.18 in 10.0 mi South 8.1 mph - N/A   Mostly Cloudy
10:53 PM 19.9 °F 11.1 °F 10.0 °F 65% 30.18 in 10.0 mi SSW 6.9 mph - N/A   Mostly Cloudy
11:53 PM 21.0 °F 10.6 °F 12.9 °F 71% 30.17 in 10.0 mi SSW 9.2 mph 18.4 mph N/A   Scattered Clouds